Weather History for EHRD - November, 2012

Change the Weather History Date:

Friday, November 9, 2012

  Actual Average Record
Temperature  
Mean Temperature 50 °F -  
Max Temperature 52 °F 46 °F 60 °F (1998)
Min Temperature 48 °F 38 °F 30 °F (2004)
Degree Days  
Heating Degree Days 15    
Moisture  
Dew Point 44 °F    
Average Humidity 81    
Maximum Humidity 87    
Minimum Humidity 68    
Precipitation  
Precipitation 0.00 in - - ()
Sea Level Pressure  
Sea Level Pressure 29.90 in    
Wind  
Wind Speed 8 mph ()    
Max Wind Speed 14 mph    
Max Gust Speed -    
Visibility 7.1 miles    
Events      
Averages and records for this station are not official NWS values.
T = Trace of Precipitation, MM = Missing Value Source: Averaged Metar Reports

Daily Weather History Graph

Daily Weather History Graph

Search for Another Location

Airport or City:

Trip Planner

Search our weather history database for the weather conditions in past years. The results will help you decide how hot, cold, wet, or windy it might be!

Date:

Astronomy

Nov. 09, 2012 Rise Set
Actual Time 7:51 AM CET 4:59 PM CET
Civil Twilight 7:15 AM CET 5:36 PM CET
Nautical Twilight 6:34 AM CET 6:16 PM CET
Astronomical Twilight 5:55 AM CET 6:56 PM CET
Moon 1:58 AM CET (11/9) 2:35 PM CET (11/9)
Length of Visible Light 10h 21m
Length of Day
9h 07m
Waning Crescent, 25% of the Moon is Illuminated
Nov 9
Waning Crescent
Nov 13
New
Nov 20
First Quarter
Nov 28
Full
Dec 6
Last Quarter

Hourly Weather History & Observations

Time (CET) Temp. Dew Point Humidity Pressure Visibility Wind Dir Wind Speed Gust Speed Precip Events Conditions
12:25 AM 50.0 °F 44.6 °F 82% 30.04 in 6.2 mi WSW 6.9 mph - N/A   Overcast
12:55 AM 50.0 °F 44.6 °F 82% 30.01 in 6.2 mi WSW 8.1 mph - N/A   Overcast
1:00 AM 51 °F 44 °F 70% 30.03 in 28 mi WSW 6.7 mph - -   Partly Cloudy
1:25 AM 50.0 °F 44.6 °F 82% 30.01 in 6.2 mi WSW 8.1 mph - N/A   Overcast
1:55 AM 50.0 °F 44.6 °F 82% 30.01 in 6.2 mi SW 8.1 mph - N/A   Overcast
2:25 AM 50.0 °F 44.6 °F 82% 30.01 in 6.2 mi SW 8.1 mph - N/A   Overcast
2:55 AM 50.0 °F 44.6 °F 82% 30.01 in 6.2 mi SW 6.9 mph - N/A   Overcast
3:25 AM 50.0 °F 46.4 °F 87% 30.01 in 6.2 mi SSW 6.9 mph - N/A   Overcast
3:55 AM 50.0 °F 46.4 °F 87% 30.01 in 6.2 mi SSW 8.1 mph - N/A   Overcast
4:00 AM 50 °F 47 °F 84% 30.01 in 14 mi SSW 6.7 mph - -   Overcast
4:25 AM 50.0 °F 46.4 °F 87% 30.01 in 6.2 mi SSW 6.9 mph - N/A   Overcast
4:55 AM 50.0 °F 46.4 °F 87% 30.01 in 6.2 mi SSW 5.8 mph - N/A   Overcast
5:25 AM 50.0 °F 46.4 °F 87% 29.98 in 6.2 mi South 5.8 mph - N/A   Overcast
5:55 AM 50.0 °F 46.4 °F 87% 29.98 in 6.2 mi South 6.9 mph - N/A   Overcast
6:25 AM 50.0 °F 44.6 °F 82% 29.98 in 6.2 mi South 8.1 mph - N/A   Overcast
6:55 AM 50.0 °F 44.6 °F 82% 29.98 in 6.2 mi South 8.1 mph - N/A   Overcast
7:00 AM 49 °F 44 °F 78% 30.00 in 14 mi SSW 8.9 mph - -   Partly Cloudy
7:25 AM 50.0 °F 44.6 °F 82% 29.98 in 6.2 mi SSW 9.2 mph - N/A   Overcast
7:55 AM 50.0 °F 44.6 °F 82% 29.98 in 6.2 mi SSW 10.4 mph - N/A   Overcast
8:25 AM 50.0 °F 44.6 °F 82% 30.01 in 6.2 mi SSW 8.1 mph - N/A   Overcast
8:55 AM 50.0 °F 44.6 °F 82% 29.98 in 6.2 mi South 6.9 mph - N/A   Overcast
9:25 AM 50.0 °F 44.6 °F 82% 29.98 in 6.2 mi South 9.2 mph - N/A   Overcast
9:55 AM 50.0 °F 44.6 °F 82% 29.98 in 6.2 mi South 9.2 mph - N/A   Overcast
10:00 AM 49 °F 44 °F 77% 29.98 in 17 mi South 8.9 mph - -   Overcast
10:25 AM 50.0 °F 44.6 °F 82% 29.98 in 6.2 mi South 8.1 mph - N/A   Overcast
10:55 AM 50.0 °F 46.4 °F 87% 29.98 in 6.2 mi South 9.2 mph - N/A   Overcast
11:25 AM 50.0 °F 46.4 °F 87% 29.95 in 6.2 mi South 11.5 mph - N/A   Overcast
11:55 AM 50.0 °F 46.4 °F 87% 29.95 in 6.2 mi South 12.7 mph - N/A   Overcast
12:25 PM 50.0 °F 46.4 °F 87% 29.92 in 6.2 mi South 10.4 mph - N/A   Overcast
12:55 PM 50.0 °F 46.4 °F 87% 29.92 in 6.2 mi South 9.2 mph - N/A   Overcast
1:00 PM 50 °F 46 °F 83% 29.93 in 9 mi South 8.9 mph - -   Partly Cloudy
1:25 PM 50.0 °F 46.4 °F 87% 29.92 in 6.2 mi South 9.2 mph - N/A   Overcast
1:55 PM 51.8 °F 46.4 °F 82% 29.89 in 6.2 mi South 10.4 mph - N/A   Overcast
2:25 PM 51.8 °F 44.6 °F 76% 29.86 in 6.2 mi South 12.7 mph - N/A   Overcast
2:55 PM 51.8 °F 46.4 °F 82% 29.86 in 6.2 mi South 10.4 mph - N/A   Overcast
3:25 PM 51.8 °F 44.6 °F 76% 29.86 in 6.2 mi South 13.8 mph - N/A   Mostly Cloudy
3:55 PM 50.0 °F 44.6 °F 82% 29.86 in 6.2 mi South 13.8 mph - N/A   Unknown
4:00 PM 51 °F 44 °F 69% 29.85 in 14 mi South 11.2 mph - -   Scattered Clouds
4:25 PM 50.0 °F 44.6 °F 82% 29.83 in 6.2 mi South 12.7 mph - N/A   Unknown
4:55 PM 50.0 °F 42.8 °F 76% 29.83 in 6.2 mi South 10.4 mph - N/A   Unknown
5:25 PM 48.2 °F 42.8 °F 82% 29.83 in 6.2 mi South 9.2 mph - N/A   Unknown
5:55 PM 48.2 °F 42.8 °F 82% 29.80 in 6.2 mi SSE 10.4 mph - N/A   Unknown
6:25 PM 50.0 °F 42.8 °F 76% 29.80 in 6.2 mi SSE 9.2 mph - N/A   Unknown
6:55 PM 50.0 °F 41.0 °F 71% 29.77 in 6.2 mi SSE 10.4 mph - N/A   Unknown
7:00 PM 49 °F 42 °F 68% 29.79 in 25 mi SSE 8.9 mph - -   Partly Cloudy
7:25 PM 50.0 °F 41.0 °F 71% 29.77 in 6.2 mi SSE 9.2 mph - N/A   Unknown
7:55 PM 50.0 °F 41.0 °F 71% 29.74 in 6.2 mi SSE 11.5 mph - N/A   Unknown
8:25 PM 48.2 °F 41.0 °F 76% 29.74 in 6.2 mi SSE 10.4 mph - N/A   Unknown
8:55 PM 48.2 °F 42.8 °F 82% 29.71 in 6.2 mi SSE 11.5 mph - N/A   Unknown
9:25 PM 48.2 °F 42.8 °F 82% 29.71 in 6.2 mi SSE 9.2 mph - N/A   Unknown
9:55 PM 48.2 °F 42.8 °F 82% 29.71 in 6.2 mi South 10.4 mph - N/A   Unknown
10:00 PM 49 °F 43 °F 71% 29.71 in 17 mi South 11.2 mph - -   Overcast
10:25 PM 48.2 °F 42.8 °F 82% 29.68 in 6.2 mi South 9.2 mph - N/A   Partly Cloudy
10:55 PM 48.2 °F 42.8 °F 82% 29.68 in 6.2 mi South 10.4 mph - N/A   Mostly Cloudy
11:25 PM 48.2 °F 42.8 °F 82% 29.68 in 6.2 mi South 11.5 mph - N/A   Overcast
11:55 PM 48.2 °F 42.8 °F 82% 29.65 in 6.2 mi South 10.4 mph - N/A   Drizzle